Regional Weather Roundup
Issued by NWS Mobile, AL

Home | Current Version | Previous Version | Text Only | Print | Product List | Glossary On
Versions: 1 2 3 4 5 6 7 8 9 10 11 12 13 14 15 16 17 18 19 20 21 22 23 24 25 26 27
000
ASUS44 KMOB 241912
RWRMOB
REGIONAL WEATHER ROUNDUP
NATIONAL WEATHER SERVICE MOBILE AL
200 PM CDT WED AUG 24 2016

NOTE: "FAIR" INDICATES FEW OR NO CLOUDS BELOW 12,000 FEET WITH NO
      SIGNIFICANT WEATHER AND/OR OBSTRUCTIONS TO VISIBILITY.

  * THESE STATIONS ARE PART OF THE UNIVERSITY OF SOUTH ALABAMA
    MESONET AND ARE NOT UNDER NWS OR FAA QUALITY CONTROL.

ALZ061>064-242000-
COASTAL ALABAMA

CITY           SKY/WX    TMP DP  RH WIND       PRES   REMARKS
MOBILE REG APT PTSUNNY   90  75  61 SE12      30.14F THUNDER HX 100
BROOKLEY FIELD MOSUNNY   93  79  63 SE7       30.13F THUNDER HX 110
USA CAMPUS*    NOT AVBL
DOG RIVER*     NOT AVBL


CITY           SKY/WX    TMP DP  RH WIND       PRES   REMARKS
MOUNT VERNON*  NOT AVBL
SARALAND*      NOT AVBL
BAY MINETTE*   NOT AVBL
LOXLEY*        NOT AVBL
ROBERTSDALE*   NOT AVBL
FAIRHOPE*      NOT AVBL
ELBERTA*       NOT AVBL
FOLEY*         NOT AVBL
GRAND BAY*     NOT AVBL
DAUPHIN ISLND* NOT AVBL
BON SCOUR NWR* NOT AVBL
GULF SHORES    PTSUNNY   90  80  73 SE10G21   30.13F THUNDER HX 106

$$

ALZ051>060-242000-
INTERIOR SOUTHWEST AND SOUTH CENTRAL ALABAMA

CITY           SKY/WX    TMP DP  RH WIND       PRES   REMARKS
GREENVILLE     PTSUNNY   92  73  53 VRB5      30.16F HX 100
EVERGREEN      MOSUNNY   91  76  61 E6        30.15F HX 103
CASTLEBERRY*   NOT AVBL
ATMORE*        NOT AVBL
DIXIE*         NOT AVBL
ANDALUSIA/OPP  PTSUNNY   95  74  50 NE5       30.16F HX 105
ANDALUSIA*     NOT AVBL
FLORALA APT    MOSUNNY   90  73  57 E8        30.17F HX  98
FLORALA*       NOT AVBL

$$

FLZ001>006-242000-
WESTERN FLORIDA PANHANDLE

CITY           SKY/WX    TMP DP  RH WIND       PRES   REMARKS
PENSACOLA      MOSUNNY   89  78  70 SE9       30.13F THUNDER HX 103
NAS PENSACOLA  PTSUNNY   88  79  74 SE13      30.12F HX 103
MILTON         PTSUNNY   89  77  67 S9        30.13F THUNDER HX 101
WHTNG S FIELD  PTSUNNY   93  82  70 S12G18    30.13F HX 116


CITY           SKY/WX    TMP DP  RH WIND       PRES   REMARKS
WALNUT HILL*   NOT AVBL
JAY*           NOT AVBL
DUKE FIELD     TSTM      85  75  70 S12G20    30.14R
CRESTVIEW      LGT RAIN  88  78  72 E7        30.15F HX 101
VALPARAISO     TSTM      88  79  75 E13       30.14S HX 102
DESTIN         CLOUDY    86  77  74 E13G21    30.15S HX  97

$$

MSZ076-079-242000-
INTERIOR SOUTHEAST MISSISSIPPI

CITY           SKY/WX    TMP DP  RH WIND       PRES   REMARKS
LEAKESVILLE*   NOT AVBL
AGRICOLA*      NOT AVBL

$$

MARINE OBSERVATIONS

STATION/POSITION TIME  TEMP    WIND        PRES    WAVE
                       AIR SEA DIR/SP/G            HT/PER
                 (UTC) (F)     (DEG/KT/KT) (MB)    (FT/S)
PASCAGOULA       1800   89     130/ 10/ 13 1020.0F
PETIT BOIS ISLND 1800   89      90/  9/ 12 1021.1F
GRAND BAY        1745   87     130/  9     1022.0S
KATRINA CUT      1800   86     130/ 12     1021.3F
CEDAR POINT      1800   87     140/ 10     1020.6F
E DAUPHIN ISLAND 1800   85     120/ 14/ 15 1020.2F
MIDDLE BAY LIGHT 1800   88     160/  5     1021.0S
USCG MOBILE BAY  1800   89 88  140/  3/  6 1021.0F
STATE DOCKS      1800   92 88              1020.3F
MEAHER PARK      1800   88     240/  5     1020.3F
WEEKS BAY        1700   91                   N/A
FORT MORGAN      1800   86     120/ 15/ 17 1020.1F
12 S ORANGE BCH  1850   85 87  100/ 12/ 14 1020.3F   2/ 4
PENSACOLA BAY    1800   89 89  160/  5/  8 1021.1F
64 S DAUPHIN ISL 1800   87 90   80/  8/ 10 1019.9F
67 S FORT MORGAN 1830   93      70/  8     1020.0S

$$

SELECTED LOCATIONS ACROSS THE REGION

CITY           SKY/WX    TMP DP  RH WIND       PRES   REMARKS
NEW ORLEANS    CLOUDY    92  76  59 S7        30.13F HX 104
GULFPORT       CLOUDY    83  77  82 N14       30.11S THUNDER HAZE
PASCAGOULA AP  PTSUNNY   86  77  74 W7        30.12F HX  97
PASCAGOULA*    NOT AVBL
HATTIESBURG    MOSUNNY   93  73  52 VRB5      30.14F HX 102
LAUREL         MOSUNNY   91  73  55 CALM      30.17S HX 100
MERIDIAN       PTSUNNY   96  73  47 NE3       30.15F HX 105
JACKSON        PTSUNNY   91  74  57 CALM      30.14F HX 100
MONTGOMERY     MOSUNNY   94  71  47 CALM      30.16F HX 101
TROY           SUNNY     90  74  59 CALM      30.18F HX  99
KINSTON*       NOT AVBL
GENEVA*        NOT AVBL
ASHFORD*       NOT AVBL
DOTHAN         MOSUNNY   88  77  69 E6        30.20F HX 100
PANAMA CITY    MOSUNNY   87  75  67 SW9G22    30.13S HX  96

$$





USA.gov is the U.S. government's official web portal to all federal, state and local government web resources and services.